Year,Month,Day,Hour,Minute,Value (Times are PST for temperature in C)
2017,08,22,00,00,15.90
2017,08,22,00,01,15.90
2017,08,22,00,02,15.90
2017,08,22,00,03,15.90
2017,08,22,00,04,15.80
2017,08,22,00,05,15.80
2017,08,22,00,06,15.80
2017,08,22,00,07,15.80
2017,08,22,00,08,15.80
2017,08,22,00,09,15.80
2017,08,22,00,10,15.80
2017,08,22,00,11,15.80
2017,08,22,00,12,15.70
2017,08,22,00,13,15.70
2017,08,22,00,14,15.70
2017,08,22,00,15,15.70
2017,08,22,00,16,15.60
2017,08,22,00,17,15.60
2017,08,22,00,18,15.60
2017,08,22,00,19,15.60
2017,08,22,00,20,15.60
2017,08,22,00,21,15.60
2017,08,22,00,22,15.60
2017,08,22,00,23,15.50
2017,08,22,00,24,15.50
2017,08,22,00,25,15.50
2017,08,22,00,26,15.50
2017,08,22,00,27,15.50
2017,08,22,00,28,15.40
2017,08,22,00,29,15.40
2017,08,22,00,30,15.40
2017,08,22,00,31,15.40
2017,08,22,00,32,15.40
2017,08,22,00,33,15.30
2017,08,22,00,34,15.30
2017,08,22,00,35,15.30
2017,08,22,00,36,15.30
2017,08,22,00,37,15.30
2017,08,22,00,38,15.30
2017,08,22,00,39,15.20
2017,08,22,00,40,15.20
2017,08,22,00,41,15.20
2017,08,22,00,42,15.20
2017,08,22,00,43,15.20
2017,08,22,00,44,15.20
2017,08,22,00,45,15.20
2017,08,22,00,46,15.20
2017,08,22,00,47,15.10
2017,08,22,00,48,15.20
2017,08,22,00,49,15.20
2017,08,22,00,50,15.20
2017,08,22,00,51,15.20
2017,08,22,00,52,15.30
2017,08,22,00,53,15.30
2017,08,22,00,54,15.30
2017,08,22,00,55,15.30
2017,08,22,00,56,15.30
2017,08,22,00,57,15.30
2017,08,22,00,58,15.30
2017,08,22,00,59,15.30
2017,08,22,01,00,15.30
2017,08,22,01,01,15.20
2017,08,22,01,02,15.20
2017,08,22,01,03,15.20
2017,08,22,01,04,15.10
2017,08,22,01,05,15.10
2017,08,22,01,06,15.10
2017,08,22,01,07,15.10
2017,08,22,01,08,15.10
2017,08,22,01,09,15.10
2017,08,22,01,10,15.10
2017,08,22,01,11,15.10
2017,08,22,01,12,15.10
2017,08,22,01,13,15.10
2017,08,22,01,14,15.10
2017,08,22,01,15,15.20
2017,08,22,01,16,15.10
2017,08,22,01,17,15.10
2017,08,22,01,18,15.10
2017,08,22,01,19,15.20
2017,08,22,01,20,15.20
2017,08,22,01,21,15.20
2017,08,22,01,22,15.20
2017,08,22,01,23,15.20
2017,08,22,01,24,15.20
2017,08,22,01,25,15.20
2017,08,22,01,26,15.20
2017,08,22,01,27,15.30
2017,08,22,01,28,15.30
2017,08,22,01,29,15.30
2017,08,22,01,30,15.40
2017,08,22,01,31,15.40
2017,08,22,01,32,15.40
2017,08,22,01,33,15.40
2017,08,22,01,34,15.50
2017,08,22,01,35,15.50
2017,08,22,01,36,15.50
2017,08,22,01,37,15.50
2017,08,22,01,38,15.50
2017,08,22,01,39,15.60
2017,08,22,01,40,15.60
2017,08,22,01,41,15.60
2017,08,22,01,42,15.60
2017,08,22,01,43,15.60
2017,08,22,01,44,15.60
2017,08,22,01,45,15.60
2017,08,22,01,46,15.60
2017,08,22,01,47,15.70
2017,08,22,01,48,15.70
2017,08,22,01,49,15.70
2017,08,22,01,50,15.70
2017,08,22,01,51,15.70
2017,08,22,01,52,15.70
2017,08,22,01,53,15.70
2017,08,22,01,54,15.80
2017,08,22,01,55,15.80
2017,08,22,01,56,15.80
2017,08,22,01,57,15.80
2017,08,22,01,58,15.80
2017,08,22,01,59,15.80
2017,08,22,02,00,15.80
2017,08,22,02,01,15.80
2017,08,22,02,02,15.80
2017,08,22,02,03,15.80
2017,08,22,02,04,15.80
2017,08,22,02,05,15.80
2017,08,22,02,06,15.80
2017,08,22,02,07,15.90
2017,08,22,02,08,15.90
2017,08,22,02,09,15.90
2017,08,22,02,10,15.90
2017,08,22,02,11,15.90
2017,08,22,02,12,15.90
2017,08,22,02,13,15.90
2017,08,22,02,14,15.90
2017,08,22,02,15,15.90
2017,08,22,02,16,16.00
2017,08,22,02,17,16.00
2017,08,22,02,18,16.00
2017,08,22,02,19,16.00
2017,08,22,02,20,16.00
2017,08,22,02,21,16.00
2017,08,22,02,22,16.00
2017,08,22,02,23,16.00
2017,08,22,02,24,16.00
2017,08,22,02,25,16.00
2017,08,22,02,26,16.00
2017,08,22,02,27,16.00
2017,08,22,02,28,16.00
2017,08,22,02,29,16.10
2017,08,22,02,30,16.10
2017,08,22,02,31,16.10
2017,08,22,02,32,16.10
2017,08,22,02,33,16.10
2017,08,22,02,34,16.10
2017,08,22,02,35,16.10
2017,08,22,02,36,16.10
2017,08,22,02,37,16.10
2017,08,22,02,38,16.10
2017,08,22,02,39,16.10
2017,08,22,02,40,16.10
2017,08,22,02,41,16.10
2017,08,22,02,42,16.10
2017,08,22,02,43,16.10
2017,08,22,02,44,16.10
2017,08,22,02,45,16.10
2017,08,22,02,46,16.10
2017,08,22,02,47,16.10
2017,08,22,02,48,16.10
2017,08,22,02,49,16.10
2017,08,22,02,50,16.10
2017,08,22,02,51,16.10
2017,08,22,02,52,16.00
2017,08,22,02,53,16.00
2017,08,22,02,54,16.00
2017,08,22,02,55,16.00
2017,08,22,02,56,16.00
2017,08,22,02,57,16.00
2017,08,22,02,58,15.90
2017,08,22,02,59,15.90
2017,08,22,03,00,15.90
2017,08,22,03,01,15.90
2017,08,22,03,02,15.90
2017,08,22,03,03,15.90
2017,08,22,03,04,15.90
2017,08,22,03,05,15.80
2017,08,22,03,06,15.80
2017,08,22,03,07,15.80
2017,08,22,03,08,15.80
2017,08,22,03,09,15.80
2017,08,22,03,10,15.80
2017,08,22,03,11,15.70
2017,08,22,03,12,15.70
2017,08,22,03,13,15.70
2017,08,22,03,14,15.70
2017,08,22,03,15,15.70
2017,08,22,03,16,15.70
2017,08,22,03,17,15.60
2017,08,22,03,18,15.60
2017,08,22,03,19,15.60
2017,08,22,03,20,15.60
2017,08,22,03,21,15.60
2017,08,22,03,22,15.60
2017,08,22,03,23,15.60
2017,08,22,03,24,15.50
2017,08,22,03,25,15.50
2017,08,22,03,26,15.50
2017,08,22,03,27,15.50
2017,08,22,03,28,15.50
2017,08,22,03,29,15.50
2017,08,22,03,30,15.50
2017,08,22,03,31,15.50
2017,08,22,03,32,15.40
2017,08,22,03,33,15.40
2017,08,22,03,34,15.40
2017,08,22,03,35,15.40
2017,08,22,03,36,15.40
2017,08,22,03,37,15.50
2017,08,22,03,38,15.50
2017,08,22,03,39,15.50
2017,08,22,03,40,15.50
2017,08,22,03,41,15.50
2017,08,22,03,42,15.50
2017,08,22,03,43,15.50
2017,08,22,03,44,15.50
2017,08,22,03,45,15.60
2017,08,22,03,46,15.60
2017,08,22,03,47,15.60
2017,08,22,03,48,15.60
2017,08,22,03,49,15.60
2017,08,22,03,50,15.60
2017,08,22,03,51,15.60
2017,08,22,03,52,15.60
2017,08,22,03,53,15.60
2017,08,22,03,54,15.60
2017,08,22,03,55,15.60
2017,08,22,03,56,15.60
2017,08,22,03,57,15.70
2017,08,22,03,58,15.70
2017,08,22,03,59,15.70
2017,08,22,04,00,15.70
2017,08,22,04,01,15.70
2017,08,22,04,02,15.70
2017,08,22,04,03,15.70
2017,08,22,04,04,15.70
2017,08,22,04,05,15.70
2017,08,22,04,06,15.70
2017,08,22,04,07,15.70
2017,08,22,04,08,15.70
2017,08,22,04,09,15.70
2017,08,22,04,10,15.70
2017,08,22,04,11,15.70
2017,08,22,04,12,15.70
2017,08,22,04,13,15.70
2017,08,22,04,14,15.70
2017,08,22,04,15,15.70
2017,08,22,04,16,15.70
2017,08,22,04,17,15.60
2017,08,22,04,18,15.60
2017,08,22,04,19,15.60
2017,08,22,04,20,15.60
2017,08,22,04,21,15.60
2017,08,22,04,22,15.60
2017,08,22,04,23,15.60
2017,08,22,04,24,15.60
2017,08,22,04,25,15.70
2017,08,22,04,26,15.70
2017,08,22,04,27,15.70
2017,08,22,04,28,15.70
2017,08,22,04,29,15.80
2017,08,22,04,30,15.80
2017,08,22,04,31,15.80
2017,08,22,04,32,15.80
2017,08,22,04,33,15.80
2017,08,22,04,34,15.80
2017,08,22,04,35,15.80
2017,08,22,04,36,15.90
2017,08,22,04,37,15.90
2017,08,22,04,38,15.90
2017,08,22,04,39,15.90
2017,08,22,04,40,15.90
2017,08,22,04,41,15.90
2017,08,22,04,42,15.90
2017,08,22,04,43,15.90
2017,08,22,04,44,15.90
2017,08,22,04,45,15.90
2017,08,22,04,46,15.90
2017,08,22,04,47,15.90
2017,08,22,04,48,15.90
2017,08,22,04,49,15.90
2017,08,22,04,50,15.90
2017,08,22,04,51,15.90
2017,08,22,04,52,15.90
2017,08,22,04,53,15.90
2017,08,22,04,54,15.90
2017,08,22,04,55,15.90
2017,08,22,04,56,15.90
2017,08,22,04,57,15.90
2017,08,22,04,58,15.90
2017,08,22,04,59,15.90
2017,08,22,05,00,15.90
2017,08,22,05,01,15.90
2017,08,22,05,02,15.90
2017,08,22,05,03,16.00
2017,08,22,05,04,15.90
2017,08,22,05,05,15.90
2017,08,22,05,06,15.90
2017,08,22,05,07,15.90
2017,08,22,05,08,15.90
2017,08,22,05,09,15.80
2017,08,22,05,10,15.80
2017,08,22,05,11,15.80
2017,08,22,05,12,15.80
2017,08,22,05,13,15.80
2017,08,22,05,14,15.80
2017,08,22,05,15,15.80
2017,08,22,05,16,15.80
2017,08,22,05,17,15.80
2017,08,22,05,18,15.90
2017,08,22,05,19,15.90
2017,08,22,05,20,15.90
2017,08,22,05,21,15.80
2017,08,22,05,22,15.80
2017,08,22,05,23,15.80
2017,08,22,05,24,15.70
2017,08,22,05,25,15.60
2017,08,22,05,26,15.60
2017,08,22,05,27,15.50
2017,08,22,05,28,15.40
2017,08,22,05,29,15.40
2017,08,22,05,30,15.30
2017,08,22,05,31,15.30
2017,08,22,05,32,15.30
2017,08,22,05,33,15.20
2017,08,22,05,34,15.20
2017,08,22,05,35,15.20
2017,08,22,05,36,15.20
2017,08,22,05,37,15.10
2017,08,22,05,38,15.10
2017,08,22,05,39,15.10
2017,08,22,05,40,15.10
2017,08,22,05,41,15.10
2017,08,22,05,42,15.10
2017,08,22,05,43,15.10
2017,08,22,05,44,15.10
2017,08,22,05,45,15.10
2017,08,22,05,46,15.10
2017,08,22,05,47,15.10
2017,08,22,05,48,15.10
2017,08,22,05,49,15.00
2017,08,22,05,50,15.00
2017,08,22,05,51,15.00
2017,08,22,05,52,15.00
2017,08,22,05,53,15.00
2017,08,22,05,54,15.00
2017,08,22,05,55,14.90
2017,08,22,05,56,15.00
2017,08,22,05,57,15.00
2017,08,22,05,58,15.10
2017,08,22,05,59,15.10
2017,08,22,06,00,15.10
2017,08,22,06,01,15.20
2017,08,22,06,02,15.20
2017,08,22,06,03,15.20
2017,08,22,06,04,15.20
2017,08,22,06,05,15.30
2017,08,22,06,06,15.30
2017,08,22,06,07,15.30
2017,08,22,06,08,15.30
2017,08,22,06,09,15.20
2017,08,22,06,10,15.20
2017,08,22,06,11,15.20
2017,08,22,06,12,15.20
2017,08,22,06,13,15.10
2017,08,22,06,14,15.10
2017,08,22,06,15,15.10
2017,08,22,06,16,15.00
2017,08,22,06,17,15.00
2017,08,22,06,18,14.90
2017,08,22,06,19,14.90
2017,08,22,06,20,14.80
2017,08,22,06,21,14.80
2017,08,22,06,22,14.80
2017,08,22,06,23,14.70
2017,08,22,06,24,14.70
2017,08,22,06,25,14.70
2017,08,22,06,26,14.70
2017,08,22,06,27,14.70
2017,08,22,06,28,14.70
2017,08,22,06,29,14.70
2017,08,22,06,30,14.80
2017,08,22,06,31,14.80
2017,08,22,06,32,14.80
2017,08,22,06,33,14.90
2017,08,22,06,34,14.80
2017,08,22,06,35,14.80
2017,08,22,06,36,14.80
2017,08,22,06,37,14.90
2017,08,22,06,38,14.90
2017,08,22,06,39,14.90
2017,08,22,06,40,15.00
2017,08,22,06,41,15.00
2017,08,22,06,42,15.10
2017,08,22,06,43,15.10
2017,08,22,06,44,15.10
2017,08,22,06,45,15.10
2017,08,22,06,46,15.20
2017,08,22,06,47,15.20
2017,08,22,06,48,15.20
2017,08,22,06,49,15.20
2017,08,22,06,50,15.20
2017,08,22,06,51,15.20
2017,08,22,06,52,15.20
2017,08,22,06,53,15.30
2017,08,22,06,54,15.30
2017,08,22,06,55,15.30
2017,08,22,06,56,15.30
2017,08,22,06,57,15.40
2017,08,22,06,58,15.40
2017,08,22,06,59,15.40
2017,08,22,07,00,15.40
2017,08,22,07,01,15.50
2017,08,22,07,02,15.50
2017,08,22,07,03,15.60
2017,08,22,07,04,15.60
2017,08,22,07,05,15.60
2017,08,22,07,06,15.70
2017,08,22,07,07,15.70
2017,08,22,07,08,15.80
2017,08,22,07,09,15.80
2017,08,22,07,10,15.80
2017,08,22,07,11,15.90
2017,08,22,07,12,15.90
2017,08,22,07,13,15.90
2017,08,22,07,14,16.00
2017,08,22,07,15,16.00
2017,08,22,07,16,16.00
2017,08,22,07,17,16.10
2017,08,22,07,18,16.10
2017,08,22,07,19,16.10
2017,08,22,07,20,16.20
2017,08,22,07,21,16.20
2017,08,22,07,22,16.20
2017,08,22,07,23,16.30
2017,08,22,07,24,16.30
2017,08,22,07,25,16.30
2017,08,22,07,26,16.40
2017,08,22,07,27,16.40
2017,08,22,07,28,16.40
2017,08,22,07,29,16.50
2017,08,22,07,30,16.50
2017,08,22,07,31,16.50
2017,08,22,07,32,16.60
2017,08,22,07,33,16.60
2017,08,22,07,34,16.60
2017,08,22,07,35,16.70
2017,08,22,07,36,16.70
2017,08,22,07,37,16.70
2017,08,22,07,38,16.70
2017,08,22,07,39,16.80
2017,08,22,07,40,16.80
2017,08,22,07,41,16.80
2017,08,22,07,42,16.90
2017,08,22,07,43,16.90
2017,08,22,07,44,16.90
2017,08,22,07,45,17.00
2017,08,22,07,46,17.00
2017,08,22,07,47,17.10
2017,08,22,07,48,17.10
2017,08,22,07,49,17.10
2017,08,22,07,50,17.10
2017,08,22,07,51,17.20
2017,08,22,07,52,17.20
2017,08,22,07,53,17.20
2017,08,22,07,54,17.20
2017,08,22,07,55,17.20
2017,08,22,07,56,17.20
2017,08,22,07,57,17.30
2017,08,22,07,58,17.30
2017,08,22,07,59,17.30
2017,08,22,08,00,17.30
2017,08,22,08,01,17.30
2017,08,22,08,02,17.30
2017,08,22,08,03,17.30
2017,08,22,08,04,17.30
2017,08,22,08,05,17.30
2017,08,22,08,06,17.40
2017,08,22,08,07,17.40
2017,08,22,08,08,17.40
2017,08,22,08,09,17.40
2017,08,22,08,10,17.50
2017,08,22,08,11,17.50
2017,08,22,08,12,17.60
2017,08,22,08,13,17.60
2017,08,22,08,14,17.70
2017,08,22,08,15,17.70
2017,08,22,08,16,17.80
2017,08,22,08,17,17.80
2017,08,22,08,18,17.80
2017,08,22,08,19,17.90
2017,08,22,08,20,17.90
2017,08,22,08,21,17.90
2017,08,22,08,22,18.00
2017,08,22,08,23,18.10
2017,08,22,08,24,18.10
2017,08,22,08,25,18.10
2017,08,22,08,26,18.20
2017,08,22,08,27,18.20
2017,08,22,08,28,18.20
2017,08,22,08,29,18.30
2017,08,22,08,30,18.30
2017,08,22,08,31,18.30
2017,08,22,08,32,18.40
2017,08,22,08,33,18.40
2017,08,22,08,34,18.50
2017,08,22,08,35,18.50
2017,08,22,08,36,18.60
2017,08,22,08,37,18.60
2017,08,22,08,38,18.70
2017,08,22,08,51,19.50
2017,08,22,08,52,19.60
2017,08,22,08,53,19.70
2017,08,22,08,54,19.80
2017,08,22,08,55,20.00
2017,08,22,08,56,20.10
2017,08,22,08,57,20.20
2017,08,22,08,58,20.20
2017,08,22,08,59,20.20
2017,08,22,09,00,20.20
2017,08,22,09,01,20.20
2017,08,22,09,02,20.20
2017,08,22,09,03,20.20
2017,08,22,09,04,20.10
2017,08,22,09,05,20.00
2017,08,22,09,06,19.90
2017,08,22,09,07,19.80
2017,08,22,09,08,19.80
2017,08,22,09,09,19.80
2017,08,22,09,10,19.80
2017,08,22,09,11,19.80
2017,08,22,09,12,19.90
2017,08,22,09,13,19.90
2017,08,22,09,14,19.90
2017,08,22,09,15,19.90
2017,08,22,09,16,19.90
2017,08,22,09,17,20.00
2017,08,22,09,18,20.00
2017,08,22,09,19,20.00
2017,08,22,09,20,20.10
2017,08,22,09,21,20.10
2017,08,22,09,22,20.10
2017,08,22,09,23,20.10
2017,08,22,09,24,20.20
2017,08,22,09,25,20.20
2017,08,22,09,26,20.30
2017,08,22,09,27,20.30
2017,08,22,09,28,20.40
2017,08,22,09,29,20.50
2017,08,22,09,30,20.60
2017,08,22,09,31,20.60
2017,08,22,09,32,20.70
2017,08,22,09,33,20.70
2017,08,22,09,34,20.70
2017,08,22,09,35,20.70
2017,08,22,09,36,20.70
2017,08,22,09,37,20.70
2017,08,22,09,38,20.60
2017,08,22,09,39,20.50
2017,08,22,09,40,20.50
2017,08,22,09,41,20.40
2017,08,22,09,42,20.40
2017,08,22,09,43,20.50
2017,08,22,09,44,20.60
2017,08,22,09,45,20.60
2017,08,22,09,46,20.70
2017,08,22,09,47,20.70
2017,08,22,09,48,20.70
2017,08,22,09,49,20.70
2017,08,22,09,50,20.80
2017,08,22,09,51,20.80
2017,08,22,09,52,20.80
2017,08,22,09,53,20.90
2017,08,22,09,54,20.90
2017,08,22,09,55,20.90
2017,08,22,09,56,20.90
2017,08,22,09,57,20.90
2017,08,22,09,58,20.90
2017,08,22,09,59,21.00
2017,08,22,10,00,21.00
2017,08,22,10,01,21.00
2017,08,22,10,02,21.10
2017,08,22,10,03,21.20
2017,08,22,10,04,21.30
2017,08,22,10,05,21.40
2017,08,22,10,06,21.40
2017,08,22,10,07,21.40
2017,08,22,10,08,21.40
2017,08,22,10,09,21.50
2017,08,22,10,10,21.50
2017,08,22,10,11,21.50
2017,08,22,10,12,21.40
2017,08,22,10,13,21.50
2017,08,22,10,14,21.50
2017,08,22,10,15,21.60
2017,08,22,10,16,21.70
2017,08,22,10,17,21.70
2017,08,22,10,18,21.70
2017,08,22,10,19,21.70
2017,08,22,10,20,21.70
2017,08,22,10,21,21.70
2017,08,22,10,22,21.70
2017,08,22,10,23,21.70
2017,08,22,10,24,21.60
2017,08,22,10,25,21.60
2017,08,22,10,26,21.60
2017,08,22,10,27,21.70
2017,08,22,10,28,21.70
2017,08,22,10,29,21.80
2017,08,22,10,30,21.90
2017,08,22,10,31,22.00
2017,08,22,10,32,22.10
2017,08,22,10,33,22.10
2017,08,22,10,34,22.10
2017,08,22,10,35,22.20
2017,08,22,10,36,22.20
2017,08,22,10,37,22.20
2017,08,22,10,38,22.10
2017,08,22,10,39,22.00
2017,08,22,10,40,22.00
2017,08,22,10,41,21.90
2017,08,22,10,42,21.90
2017,08,22,10,43,21.80
2017,08,22,10,44,21.80
2017,08,22,10,45,21.80
2017,08,22,10,46,21.70
2017,08,22,10,47,21.70
2017,08,22,10,48,21.70
2017,08,22,10,49,21.80
2017,08,22,10,50,21.80
2017,08,22,10,51,21.90
2017,08,22,10,52,22.00
2017,08,22,10,53,22.20
2017,08,22,10,54,22.30
2017,08,22,10,55,22.30
2017,08,22,10,56,22.30
2017,08,22,10,57,22.40
2017,08,22,10,58,22.30
2017,08,22,10,59,22.30
2017,08,22,11,00,22.30
2017,08,22,11,01,22.40
2017,08,22,11,02,22.40
2017,08,22,11,03,22.40
2017,08,22,11,04,22.40
2017,08,22,11,05,22.40
2017,08,22,11,06,22.40
2017,08,22,11,07,22.40
2017,08,22,11,08,22.40
2017,08,22,11,09,22.30
2017,08,22,11,10,22.30
2017,08,22,11,11,22.20
2017,08,22,11,12,22.10
2017,08,22,11,13,22.10
2017,08,22,11,14,22.10
2017,08,22,11,15,22.10
2017,08,22,11,16,22.10
2017,08,22,11,17,22.10
2017,08,22,11,18,22.20
2017,08,22,11,19,22.20
2017,08,22,11,20,22.30
2017,08,22,11,21,22.30
2017,08,22,11,22,22.30
2017,08,22,11,23,22.40
2017,08,22,11,24,22.40
2017,08,22,11,25,22.40
2017,08,22,11,26,22.50
2017,08,22,11,27,22.50
2017,08,22,11,28,22.60
2017,08,22,11,29,22.60
2017,08,22,11,30,22.70
2017,08,22,11,31,22.80
2017,08,22,11,32,22.90
2017,08,22,11,33,22.90
2017,08,22,11,34,22.90
2017,08,22,11,35,22.90
2017,08,22,11,36,22.90
2017,08,22,11,37,22.90
2017,08,22,11,38,22.90
2017,08,22,11,39,22.90
2017,08,22,11,40,22.90
2017,08,22,11,41,23.00
2017,08,22,11,42,22.90
2017,08,22,11,43,22.90
2017,08,22,11,44,22.90
2017,08,22,11,45,22.80
2017,08,22,11,46,22.80
2017,08,22,11,47,22.80
2017,08,22,11,48,22.70
2017,08,22,11,49,22.70
2017,08,22,11,50,22.70
2017,08,22,11,51,22.70
2017,08,22,11,52,22.70
2017,08,22,11,53,22.70
2017,08,22,11,54,22.70
2017,08,22,11,55,22.70
2017,08,22,11,56,22.70
2017,08,22,11,57,22.60
2017,08,22,11,58,22.60
2017,08,22,11,59,22.40
2017,08,22,12,00,22.30
2017,08,22,12,01,22.20
2017,08,22,12,02,22.20
2017,08,22,12,03,22.20
2017,08,22,12,04,22.20
2017,08,22,12,05,22.10
2017,08,22,12,06,22.10
2017,08,22,12,07,22.10
2017,08,22,12,08,22.10
2017,08,22,12,09,22.20
2017,08,22,12,10,22.20
2017,08,22,12,11,22.20
2017,08,22,12,12,22.20
2017,08,22,12,13,22.20
2017,08,22,12,14,22.20
2017,08,22,12,15,22.20
2017,08,22,12,16,22.20
2017,08,22,12,17,22.30
2017,08,22,12,18,22.30
2017,08,22,12,19,22.40
2017,08,22,12,20,22.40
2017,08,22,12,21,22.40
2017,08,22,12,22,22.40
2017,08,22,12,23,22.40
2017,08,22,12,24,22.40
2017,08,22,12,25,22.40
2017,08,22,12,26,22.30
2017,08,22,12,27,22.30
2017,08,22,12,28,22.40
2017,08,22,12,29,22.40
2017,08,22,12,30,22.50
2017,08,22,12,31,22.50
2017,08,22,12,32,22.50
2017,08,22,12,33,22.50
2017,08,22,12,34,22.50
2017,08,22,12,35,22.50
2017,08,22,12,36,22.40
2017,08,22,12,37,22.40
2017,08,22,12,38,22.40
2017,08,22,12,39,22.40
2017,08,22,12,40,22.40
2017,08,22,12,41,22.50
2017,08,22,12,42,22.60
2017,08,22,12,43,22.60
2017,08,22,12,44,22.70
2017,08,22,12,45,22.80
2017,08,22,12,46,22.90
2017,08,22,12,47,23.00
2017,08,22,12,48,23.10
2017,08,22,12,49,23.30
2017,08,22,12,50,23.40
2017,08,22,12,51,23.40
2017,08,22,12,52,23.50
2017,08,22,12,53,23.60
2017,08,22,12,54,23.60
2017,08,22,12,55,23.60
2017,08,22,12,56,23.70
2017,08,22,12,57,23.70
2017,08,22,12,58,23.70
2017,08,22,12,59,23.70
2017,08,22,13,00,23.60
2017,08,22,13,01,23.60
2017,08,22,13,02,23.60
2017,08,22,13,03,23.50
2017,08,22,13,04,23.50
2017,08,22,13,05,23.60
2017,08,22,13,06,23.60
2017,08,22,13,07,23.60
2017,08,22,13,08,23.60
2017,08,22,13,09,23.60
2017,08,22,13,10,23.60
2017,08,22,13,11,23.70
2017,08,22,13,12,23.70
2017,08,22,13,13,23.70
2017,08,22,13,14,23.80
2017,08,22,13,15,23.90
2017,08,22,13,16,23.90
2017,08,22,13,17,23.80
2017,08,22,13,18,23.80
2017,08,22,13,19,23.80
2017,08,22,13,20,23.80
2017,08,22,13,21,23.80
2017,08,22,13,22,23.70
2017,08,22,13,23,23.60
2017,08,22,13,24,23.50
2017,08,22,13,25,23.40
2017,08,22,13,26,23.30
2017,08,22,13,27,23.30
2017,08,22,13,28,23.30
2017,08,22,13,29,23.30
2017,08,22,13,30,23.40
2017,08,22,13,31,23.50
2017,08,22,13,32,23.40
2017,08,22,13,33,23.40
2017,08,22,13,34,23.30
2017,08,22,13,35,23.30
2017,08,22,13,36,23.30
2017,08,22,13,37,23.30
2017,08,22,13,38,23.30
2017,08,22,13,39,23.30
2017,08,22,13,40,23.20
2017,08,22,13,41,23.10
2017,08,22,13,42,23.10
2017,08,22,13,43,23.10
2017,08,22,13,44,23.10
2017,08,22,13,45,23.20
2017,08,22,13,46,23.30
2017,08,22,13,47,23.30
2017,08,22,13,48,23.40
2017,08,22,13,49,23.40
2017,08,22,13,50,23.30
2017,08,22,13,51,23.30
2017,08,22,13,52,23.20
2017,08,22,13,53,23.20
2017,08,22,13,54,23.30
2017,08,22,13,55,23.40
2017,08,22,13,56,23.50
2017,08,22,13,57,23.60
2017,08,22,13,58,23.60
2017,08,22,13,59,23.60
2017,08,22,14,00,23.50
2017,08,22,14,01,23.50
2017,08,22,14,02,23.40
2017,08,22,14,03,23.30
2017,08,22,14,04,23.20
2017,08,22,14,05,23.10
2017,08,22,14,06,23.00
2017,08,22,14,07,23.00
2017,08,22,14,08,22.90
2017,08,22,14,09,22.90
2017,08,22,14,10,22.90
2017,08,22,14,11,22.90
2017,08,22,14,12,22.90
2017,08,22,14,13,22.90
2017,08,22,14,14,22.90
2017,08,22,14,15,22.80
2017,08,22,14,16,22.80
2017,08,22,14,17,22.80
2017,08,22,14,18,22.80
2017,08,22,14,19,22.80
2017,08,22,14,20,22.90
2017,08,22,14,21,22.90
2017,08,22,14,22,22.90
2017,08,22,14,23,22.90
2017,08,22,14,24,23.00
2017,08,22,14,25,23.00
2017,08,22,14,26,23.10
2017,08,22,14,27,23.10
2017,08,22,14,28,23.00
2017,08,22,14,29,22.90
2017,08,22,14,30,22.70
2017,08,22,14,31,22.70
2017,08,22,14,32,22.60
2017,08,22,14,33,22.50
2017,08,22,14,34,22.40
2017,08,22,14,35,22.40
2017,08,22,14,36,22.40
2017,08,22,14,37,22.40
2017,08,22,14,38,22.40
2017,08,22,14,39,22.30
2017,08,22,14,40,22.20
2017,08,22,14,41,22.20
2017,08,22,14,42,22.20
2017,08,22,14,43,22.20
2017,08,22,14,44,22.20
2017,08,22,14,45,22.30
2017,08,22,14,46,22.30
2017,08,22,14,47,22.30
2017,08,22,14,48,22.30
2017,08,22,14,49,22.40
2017,08,22,14,50,22.40
2017,08,22,14,51,22.40
2017,08,22,14,52,22.40
2017,08,22,14,53,22.40
2017,08,22,14,54,22.40
2017,08,22,14,55,22.40
2017,08,22,14,56,22.50
2017,08,22,14,57,22.50
2017,08,22,14,58,22.60
2017,08,22,14,59,22.60
2017,08,22,15,00,22.60
2017,08,22,15,01,22.50
2017,08,22,15,02,22.50
2017,08,22,15,03,22.40
2017,08,22,15,04,22.30
2017,08,22,15,05,22.20
2017,08,22,15,06,22.20
2017,08,22,15,07,22.20
2017,08,22,15,08,22.30
2017,08,22,15,09,22.30
2017,08,22,15,10,22.30
2017,08,22,15,11,22.30
2017,08,22,15,12,22.40
2017,08,22,15,13,22.50
2017,08,22,15,14,22.50
2017,08,22,15,15,22.60
2017,08,22,15,16,22.60
2017,08,22,15,17,22.60
2017,08,22,15,18,22.60
2017,08,22,15,19,22.60
2017,08,22,15,20,22.60
2017,08,22,15,21,22.70
2017,08,22,15,22,22.70
2017,08,22,15,23,22.80
2017,08,22,15,24,22.90
2017,08,22,15,25,22.90
2017,08,22,15,26,22.90
2017,08,22,15,27,22.90
2017,08,22,15,28,22.90
2017,08,22,15,29,22.90
2017,08,22,15,30,22.80
2017,08,22,15,31,22.80
2017,08,22,15,32,22.70
2017,08,22,15,33,22.60
2017,08,22,15,34,22.50
2017,08,22,15,35,22.40
2017,08,22,15,36,22.30
2017,08,22,15,37,22.20
2017,08,22,15,38,22.00
2017,08,22,15,39,21.90
2017,08,22,15,40,21.80
2017,08,22,15,41,21.70
2017,08,22,15,42,21.60
2017,08,22,15,43,21.60
2017,08,22,15,44,21.50
2017,08,22,15,45,21.50
2017,08,22,15,46,21.40
2017,08,22,15,47,21.20
2017,08,22,15,48,21.10
2017,08,22,15,49,21.00
2017,08,22,15,50,21.00
2017,08,22,15,51,21.00
2017,08,22,15,52,21.10
2017,08,22,15,53,21.10
2017,08,22,15,54,21.10
2017,08,22,15,55,21.10
2017,08,22,15,56,21.00
2017,08,22,15,57,20.90
2017,08,22,15,58,20.80
2017,08,22,15,59,20.70
2017,08,22,16,00,20.60
2017,08,22,16,01,20.50
2017,08,22,16,02,20.40
2017,08,22,16,03,20.40
2017,08,22,16,04,20.30
2017,08,22,16,05,20.30
2017,08,22,16,06,20.30
2017,08,22,16,07,20.30
2017,08,22,16,08,20.40
2017,08,22,16,09,20.50
2017,08,22,16,10,20.60
2017,08,22,16,11,20.70
2017,08,22,16,12,20.80
2017,08,22,16,13,20.90
2017,08,22,16,14,20.90
2017,08,22,16,15,20.90
2017,08,22,16,16,20.90
2017,08,22,16,17,20.90
2017,08,22,16,18,20.80
2017,08,22,16,19,20.70
2017,08,22,16,20,20.60
2017,08,22,16,21,20.40
2017,08,22,16,22,20.20
2017,08,22,16,23,20.10
2017,08,22,16,24,19.90
2017,08,22,16,25,19.80
2017,08,22,16,26,19.80
2017,08,22,16,27,19.70
2017,08,22,16,28,19.60
2017,08,22,16,29,19.60
2017,08,22,16,30,19.50
2017,08,22,16,31,19.40
2017,08,22,16,32,19.40
2017,08,22,16,33,19.30
2017,08,22,16,34,19.30
2017,08,22,16,35,19.30
2017,08,22,16,36,19.30
2017,08,22,16,37,19.20
2017,08,22,16,38,19.20
2017,08,22,16,39,19.10
2017,08,22,16,40,18.90
2017,08,22,16,41,18.80
2017,08,22,16,42,18.70
2017,08,22,16,43,18.70
2017,08,22,16,44,18.60
2017,08,22,16,45,18.60
2017,08,22,16,46,18.60
2017,08,22,16,47,18.60
2017,08,22,16,48,18.60
2017,08,22,16,49,18.50
2017,08,22,16,50,18.50
2017,08,22,16,51,18.40
2017,08,22,16,52,18.50
2017,08,22,16,53,18.50
2017,08,22,16,54,18.60
2017,08,22,16,55,18.60
2017,08,22,16,56,18.60
2017,08,22,16,57,18.70
2017,08,22,16,58,18.70
2017,08,22,16,59,18.70
2017,08,22,17,00,18.80
2017,08,22,17,01,18.90
2017,08,22,17,02,19.00
2017,08,22,17,03,19.00
2017,08,22,17,04,19.10
2017,08,22,17,05,19.20
2017,08,22,17,06,19.30
2017,08,22,17,07,19.40
2017,08,22,17,08,19.50
2017,08,22,17,09,19.70
2017,08,22,17,10,19.80
2017,08,22,17,11,20.00
2017,08,22,17,12,20.10
2017,08,22,17,13,20.20
2017,08,22,17,14,20.30
2017,08,22,17,15,20.40
2017,08,22,17,16,20.40
2017,08,22,17,17,20.40
2017,08,22,17,18,20.50
2017,08,22,17,19,20.60
2017,08,22,17,20,20.60
2017,08,22,17,21,20.60
2017,08,22,17,22,20.70
2017,08,22,17,23,20.70
2017,08,22,17,24,20.70
2017,08,22,17,25,20.70
2017,08,22,17,26,20.70
2017,08,22,17,27,20.70
2017,08,22,17,28,20.70
2017,08,22,17,29,20.60
2017,08,22,17,30,20.60
2017,08,22,17,31,20.60